TimeMDT,TemperatureF,Dew PointF,Humidity,Sea Level PressureIn,VisibilityMPH,Wind Direction,Wind SpeedMPH,Gust SpeedMPH,PrecipitationIn,Events,Conditions,WindDirDegrees,DateUTC
12:52 AM,50.0,37.9,63,30.09,10.0,North,10.4,-,N/A,,Clear,360,2013-05-09 06:52:00
1:52 AM,46.9,37.9,71,30.08,10.0,NNW,10.4,-,N/A,,Clear,340,2013-05-09 07:52:00
2:52 AM,45.0,37.9,76,30.10,10.0,NNW,6.9,-,N/A,,Clear,330,2013-05-09 08:52:00
3:52 AM,46.9,39.9,77,30.11,10.0,North,5.8,-,N/A,,Mostly Cloudy,350,2013-05-09 09:52:00
4:52 AM,46.0,39.9,79,30.12,10.0,NNE,8.1,-,N/A,,Overcast,20,2013-05-09 10:52:00
5:52 AM,43.0,39.0,86,30.14,10.0,North,8.1,-,N/A,,Partly Cloudy,350,2013-05-09 11:52:00
6:52 AM,46.9,39.9,77,30.14,10.0,North,5.8,-,N/A,,Clear,350,2013-05-09 12:52:00
7:52 AM,48.9,39.9,71,30.17,10.0,North,8.1,-,N/A,,Clear,360,2013-05-09 13:52:00
8:52 AM,51.1,41.0,68,30.17,10.0,Calm,Calm,-,N/A,,Partly Cloudy,0,2013-05-09 14:52:00
9:52 AM,54.0,41.0,62,30.17,10.0,NNE,8.1,-,N/A,,Mostly Cloudy,30,2013-05-09 15:52:00
10:52 AM,57.9,42.1,56,30.17,10.0,North,11.5,16.1,N/A,,Mostly Cloudy,350,2013-05-09 16:52:00
11:52 AM,60.8,41.0,48,30.18,10.0,NNE,15.0,20.7,N/A,,Clear,20,2013-05-09 17:52:00
12:52 PM,61.0,41.0,48,30.16,10.0,North,11.5,-,N/A,,Mostly Cloudy,360,2013-05-09 18:52:00
1:52 PM,62.6,42.8,48,30.15,10.0,NNE,9.2,-,N/A,,Mostly Cloudy,30,2013-05-09 19:52:00
2:52 PM,64.0,42.1,45,30.13,10.0,NE,8.1,-,N/A,,Mostly Cloudy,50,2013-05-09 20:52:00
3:52 PM,64.0,41.0,43,30.12,10.0,East,3.5,-,N/A,,Mostly Cloudy,100,2013-05-09 21:52:00
4:52 PM,63.0,43.0,48,30.12,10.0,SSE,5.8,-,0.00,Rain,Light Rain,150,2013-05-09 22:52:00
5:52 PM,62.6,42.8,48,30.12,10.0,WSW,4.6,-,N/A,,Overcast,250,2013-05-09 23:52:00
6:52 PM,62.1,42.1,48,30.11,10.0,NE,6.9,-,N/A,,Scattered Clouds,50,2013-05-10 00:52:00
7:52 PM,53.6,39.2,58,30.12,10.0,ENE,6.9,-,N/A,,Clear,70,2013-05-10 01:52:00
8:52 PM,50.0,37.9,63,30.15,10.0,East,9.2,-,N/A,,Clear,80,2013-05-10 02:52:00
9:52 PM,52.0,39.9,63,30.16,10.0,East,5.8,-,N/A,,Overcast,100,2013-05-10 03:52:00
10:52 PM,46.4,39.2,76,30.16,10.0,Calm,Calm,-,N/A,,Scattered Clouds,0,2013-05-10 04:52:00
11:52 PM,43.0,36.0,76,30.17,10.0,WNW,4.6,-,N/A,,Clear,300,2013-05-10 05:52:00